DL9GJ-4 Weather Reports


Display with metric or nautical units.
time (UTC)temp
F
wind
direction
speed
MPH
gust
MPH
rain 1hr
in
rain 24hr
in
rain mn
in
humidity
%
barometer
mb
20260507040637 46 215 2.0 3.0 0.00 0.03 0.00 58 1010.0
20260507040035 46 196 3.0 5.0 0.00 0.03 0.00 59 1010.0
20260507035428 46 191 4.0 4.0 0.00 0.03 0.00 60 1010.0
20260507034225 46 165 5.0 5.0 0.00 0.03 0.00 65 1010.0
20260507033623 46 205 5.0 5.0 0.00 0.03 0.00 67 1010.0
20260507033020 45 220 3.0 5.0 0.00 0.03 0.00 68 1010.0
20260507032418 45 143 5.0 5.0 0.00 0.03 0.00 67 1010.0
20260507031919 45 203 4.0 4.0 0.00 0.03 0.00 63 1010.0
20260507031816 45 203 4.0 4.0 0.00 0.03 0.00 63 1010.0
20260507031212 44 200 0.0 0.0 0.00 0.03 0.00 59 1010.0
20260507024759 45 200 0.0 0.0 0.00 0.03 0.00 57 1010.0
20260507023555 45 222 2.0 3.0 0.00 0.03 0.00 55 1010.0
20260507022954 45 208 2.0 2.0 0.00 0.03 0.00 54 1010.0
20260507022351 45 208 0.0 2.0 0.00 0.03 0.00 53 1010.0
20260507021746 45 206 0.0 2.0 0.00 0.03 0.00 52 1010.0
20260507021143 45 257 0.0 2.0 0.00 0.03 0.00 50 1010.0
20260507020540 45 195 0.0 0.0 0.00 0.03 0.00 49 1010.0
20260507015937 45 195 0.0 0.0 0.00 0.03 0.00 49 1010.0
20260507015337 45 194 0.0 0.0 0.00 0.03 0.00 49 1009.0
20260507014143 46 195 0.0 0.0 0.00 0.03 0.00 48 1009.0
20260507014134 46 195 0.0 0.0 0.00 0.03 0.00 48 1009.0
20260507012331 47 195 0.0 2.0 0.00 0.03 0.00 47 1009.0
20260507011731 47 193 2.0 2.0 0.00 0.03 0.00 47 1009.0
20260507011132 47 194 2.0 4.0 0.00 0.03 0.00 47 1009.0
20260507010531 47 185 3.0 4.0 0.00 0.03 0.00 47 1009.0
20260507005331 47 188 3.0 4.0 0.00 0.03 0.00 48 1009.0
20260507004733 47 200 3.0 3.0 0.00 0.03 0.00 48 1009.0
20260507004131 47 189 4.0 4.0 0.00 0.03 0.00 48 1009.0
20260507001737 47 201 3.0 3.0 0.00 0.03 0.00 47 1009.0
20260507001731 47 201 3.0 3.0 0.00 0.03 0.00 47 1009.0
20260507001131 47 188 3.0 3.0 0.00 0.03 0.00 48 1009.0
20260507000530 47 184 4.0 4.0 0.00 0.03 0.00 49 1009.0
20260506235928 47 194 4.0 4.0 0.00 0.03 0.00 50 1009.0
20260506235327 47 192 3.0 3.0 0.00 0.03 0.00 51 1009.0
20260506234725 47 188 3.0 4.0 0.00 0.03 0.00 52 1009.0
20260506234121 47 208 3.0 3.0 0.00 0.03 0.00 53 1009.0
20260506233515 47 189 3.0 3.0 0.00 0.03 0.00 53 1009.0
20260506232913 47 191 3.0 4.0 0.00 0.03 0.00 55 1009.0
20260506231708 46 157 3.0 3.0 0.00 0.03 0.00 57 1009.0
20260506231104 46 185 3.0 3.0 0.00 0.03 0.00 55 1009.0
20260506230500 46 193 0.0 0.0 0.00 0.03 0.00 55 1009.0
20260506225855 46 192 2.0 3.0 0.00 0.03 0.00 54 1009.0
20260506225253 46 191 3.0 3.0 0.00 0.03 0.00 54 1009.0
20260506222843 47 193 3.0 4.0 0.00 0.03 0.00 52 1009.0
20260506222242 47 183 2.0 2.0 0.00 0.03 0.00 50 1009.0
20260506221637 47 183 2.0 3.0 0.00 0.03 0.00 50 1009.0
20260506215823 48 193 0.0 2.0 0.00 0.11 0.00 50 1009.0
20260506214614 48 188 5.0 5.0 0.00 0.11 0.00 50 1009.0
20260506214024 47 196 3.0 5.0 0.00 0.11 0.00 51 1009.0
20260506214012 47 196 3.0 5.0 0.00 0.11 0.00 51 1009.0
20260506212807 47 177 3.0 3.0 0.00 0.11 0.00 53 1009.0
20260506212206 47 171 4.0 4.0 0.00 0.11 0.00 53 1009.0
20260506211604 47 222 3.0 5.0 0.00 0.11 0.00 53 1009.0
20260506210958 47 195 5.0 5.0 0.00 0.11 0.00 53 1009.0
20260506210356 47 193 2.0 5.0 0.00 0.11 0.00 53 1009.0
20260506205752 47 201 5.0 5.0 0.00 0.11 0.00 52 1009.0
20260506203952 47 197 4.0 5.0 0.00 0.11 0.00 53 1009.0
20260506202149 47 184 4.0 5.0 0.00 0.11 0.00 56 1009.0
20260506200950 47 149 4.0 4.0 0.00 0.11 0.00 56 1009.0
20260506200350 47 216 4.0 4.0 0.00 0.11 0.00 56 1009.0
20260506195750 47 204 3.0 3.0 0.00 0.11 0.00 55 1009.0
20260506195150 47 221 3.0 3.0 0.00 0.11 0.00 54 1009.0
20260506194549 47 187 4.0 4.0 0.00 0.11 0.00 54 1009.0
20260506193948 47 228 3.0 5.0 0.00 0.11 0.00 53 1009.0
20260506193345 48 164 4.0 4.0 0.00 0.11 0.00 53 1009.0
20260506192744 48 193 4.0 6.0 0.00 0.11 0.00 53 1009.0
20260506192140 48 221 5.0 5.0 0.00 0.11 0.00 54 1008.0
20260506191539 48 191 5.0 5.0 0.00 0.11 0.00 53 1008.0
20260506190332 48 222 3.0 5.0 0.00 0.11 0.00 54 1008.0
20260506185728 48 174 4.0 5.0 0.00 0.11 0.00 54 1008.0
20260506185125 48 231 3.0 4.0 0.00 0.11 0.00 54 1008.0
20260506184522 48 198 3.0 3.0 0.00 0.11 0.00 54 1008.0
20260506183919 48 189 4.0 4.0 0.00 0.11 0.00 54 1008.0
20260506183318 48 195 4.0 5.0 0.00 0.11 0.00 54 1008.0
20260506182714 48 171 4.0 4.0 0.00 0.11 0.00 54 1008.0
20260506182113 48 220 4.0 4.0 0.00 0.11 0.00 53 1008.0
20260506175108 48 223 3.0 5.0 0.00 0.11 0.00 50 1007.0
20260506173259 48 179 3.0 3.0 0.00 0.11 0.00 50 1007.0
20260506172655 48 192 5.0 6.0 0.00 0.11 0.00 49 1007.0
20260506170854 49 244 5.0 5.0 0.00 0.11 0.00 50 1007.0
20260506170254 49 238 3.0 7.0 0.00 0.11 0.00 50 1007.0
20260506165653 49 225 3.0 3.0 0.00 0.11 0.00 49 1007.0
20260506163854 50 263 0.0 2.0 0.00 0.11 0.00 54 1007.0
20260506162654 49 224 3.0 4.0 0.00 0.11 0.00 55 1007.0
20260506160850 48 197 4.0 5.0 0.00 0.11 0.00 53 1007.0
20260506160250 48 243 5.0 5.0 0.00 0.11 0.00 52 1007.0
20260506155646 48 192 4.0 4.0 0.00 0.11 0.00 51 1007.0
20260506152639 48 157 5.0 5.0 0.00 0.11 0.00 53 1007.0
20260506145620 48 215 6.0 6.0 0.00 0.11 0.00 53 1007.0
20260506145051 48 198 6.0 7.0 0.00 0.11 0.00 50 1006.0
20260506145017 48 198 6.0 7.0 0.00 0.11 0.00 50 1006.0
20260506143816 49 212 5.0 10.0 0.00 0.11 0.00 47 1005.0
20260506143212 50 188 8.0 9.0 0.00 0.11 0.00 43 1005.0
20260506142021 58 213 3.0 3.0 0.00 0.11 0.00 35 1004.0
20260506141403 58 207 0.0 5.0 0.00 0.11 0.00 33 1004.0
20260506140159 59 206 5.0 5.0 0.00 0.11 0.00 29 1004.0
20260506133150 58 98 2.0 3.0 0.00 0.11 0.00 51 1004.0
20260506131348 54 98 0.0 0.0 0.00 0.11 0.00 45 1004.0
20260506130148 53 98 0.0 4.0 0.00 0.11 0.00 41 1005.0
20260506124950 53 211 2.0 2.0 0.00 0.11 0.00 40 1005.0
20260506124349 54 211 0.0 0.0 0.00 0.11 0.00 36 1005.0
20260506123750 54 211 3.0 3.0 0.00 0.11 0.00 35 1005.0
20260506123146 55 211 3.0 3.0 0.00 0.11 0.00 35 1005.0
20260506120735 58 281 0.0 0.0 0.00 0.11 0.00 28 1004.0
20260506120133 58 281 0.0 0.0 0.00 0.11 0.00 30 1004.0
20260506114930 59 281 0.0 0.0 0.00 0.11 0.00 30 1004.0
20260506113725 60 281 0.0 0.0 0.00 0.11 0.00 29 1004.0
20260506113124 59 281 2.0 3.0 0.00 0.11 0.00 31 1004.0
20260506112523 59 280 0.0 0.0 0.00 0.11 0.00 31 1004.0
20260506111925 59 280 0.0 3.0 0.00 0.11 0.00 32 1004.0
20260506110724 59 278 0.0 0.0 0.00 0.11 0.00 30 1004.0
20260506110124 59 278 3.0 3.0 0.00 0.11 0.00 29 1004.0
20260506105520 59 324 3.0 3.0 0.00 0.11 0.00 30 1004.0
20260506103717 60 290 2.0 2.0 0.00 0.11 0.00 29 1004.0
20260506103118 60 314 3.0 3.0 0.00 0.11 0.00 28 1004.0
20260506101318 60 283 2.0 2.0 0.00 0.11 0.00 38 1004.0
20260506100716 58 289 2.0 2.0 0.00 0.11 0.00 38 1005.0
20260506095518 57 284 2.0 2.0 0.00 0.11 0.00 39 1005.0
20260506094916 56 283 0.0 0.0 0.00 0.11 0.00 41 1005.0
20260506093716 56 114 0.0 3.0 0.00 0.11 0.00 51 1005.0
20260506093115 56 121 3.0 3.0 0.00 0.11 0.00 52 1005.0
20260506092512 56 120 3.0 3.0 0.00 0.11 0.00 52 1005.0
20260506091306 56 120 0.0 2.0 0.00 0.11 0.00 54 1005.0
20260506090658 56 120 0.0 0.0 0.00 0.11 0.00 55 1005.0
20260506084850 56 120 0.0 3.0 0.00 0.11 0.00 61 1005.0
20260506083643 55 120 0.0 2.0 0.00 0.11 0.00 64 1005.0
20260506081838 54 120 0.0 0.0 0.00 0.11 0.00 64 1005.0
20260506080634 54 121 0.0 3.0 0.00 0.11 0.00 64 1005.0
20260506073025 51 187 0.0 0.0 0.00 0.11 0.00 63 1005.0
20260506072425 51 188 0.0 0.0 0.00 0.11 0.00 62 1005.0
20260506071225 51 188 2.0 2.0 0.00 0.11 0.00 61 1005.0
20260506060624 49 187 0.0 0.0 0.00 0.11 0.00 61 1005.0
20260506050625 45 187 0.0 0.0 0.00 0.11 0.00 59 1005.0
20260506044825 44 187 0.0 0.0 0.00 0.11 0.00 58 1006.0
20260506043019 43 187 0.0 2.0 0.00 0.11 0.00 57 1006.0
20260506042419 43 187 2.0 3.0 0.00 0.11 0.00 56 1006.0
20260506041819 44 187 2.0 2.0 0.00 0.11 0.00 56 1006.0